SL-16 DEB, 22432

Orbit data source: Space-Track

SL-16 DEB, 22432 is space debris in LEO originally from a launch on Fri, 25 Dec 1992 UTC launched from the Tyuratam Missile And Space Complex (TTMTR). Debris objects in space refer to the collection of defunct objects orbiting the Earth. Examples of debris include non-operational satellites, rocket bodies, and fragments generated from explosions, collisions, or faulty payload assembly.

Loading next visibility...
Identifier
22432, 1992-093DZ
Orbit
LEO
Country
Flag of CISCIS
Related business
Manufacturer
Unknown
Mission
Spacecraft
Bus & Motor
Unknown
Mass
Unknown
Launch date (UTC)
1992-12-25 (33 years ago)
Launch vehicle
Unknown
Launch site
Tyuratam Missile And Space Complex (TTMTR)
Object type
Payload
Rocket body
Debris
Shape & HBR
Unknown shape, 0.1 m
Radar Cross Section
Small (<0.1 m²)

Expand to show TLE details & history
Last TLE update: 11 hours ago

TLE from 11 hours ago
0 SL-16 DEB
1 22432U 92093DZ  26132.96867277  .00000286  00000-0  19042-3 0  9997
2 22432  70.8328 318.8119 0098758  37.3180 113.4819 14.07281707700925
Epoch: 2026-05-12T23:14Z
TLE epoch observation values (Epoch: 2026-05-12T23:14:53.327Z)
Latitude
26.52468°
Longitude
-90.58372°
Altitude
900.497 km
Speed
7.39 km/s
True Right ascension
08h 35m 29s
True Declination
26° 23' 25"
Sunlit
Object was in daylight at epoch
Visualization orbit readout
Latitude
Unknown
Longitude
Unknown
Altitude
Unknown
Speed
Unknown
Apparent Right ascension
Unknown
Apparent Declination
Unknown
Sunlit
N/A
Visualization observer readout
Local Sidereal Time
18:40:49
Azimuth
Unknown
Elevation
Unknown
Doppler factor
Unknown
Orbital elements
Apogee altitude
938.185 km
Perigee altitude
795.089 km
Semi-major axis
7,244.774 km
Eccentricity
0.00988
Inclination
70.8328°
RAAN
318.8119°
Arg. of periapsis
37.318°
True anomaly
114.51473°
Mean anomaly
113.4819°
Eccentric anomaly
113.99883°
Mean motion
3.5197 °/min
Orbital period
102.28 mins
BSTAR
0.00019042
Loading maneuver chart data...
Computing Atmospheric mass density...
Loading historical data...
Loading historical data...
Loading historical data...
Loading historical data...
Loading historical data...
Loading historical data...
Loading historical data...

Documentation

Showing up to 5 results
|